Showing default

YAOGAN-39 05C, 58559

Orbit data source: Space-Track

YAOGAN-39 05C, 58559 is a payload satellite owned by PLA GAD (CN) in LEO that was launched on Sun, 10 Dec 2023 UTC via a CHANG ZHENG 2D launch vehicle from the Xichang Space Center, China (XSC). Payload-class satellites include a variety of spacecraft equipped with specific instruments for various scientific and technological missions. These include communications satellites like Starlink; space stations such as the ISS; scientific satellites like the Hubble; Earth observation satellites from companies like Planet Labs, Umbra, and HawkEye 360; GPS; miniature CubeSats for education and research; and military/defense satellites.

Loading next visibility...
Identifier
58559, 2023-194C
Orbit
LEO
Country
Flag of CNCN / PRC
Related business
Manufacturer
DFH
Mission
Operational Defense Sigint
Bus & Motor
Unknown
Mass
~300 kg wet, ~300 kg dry
Launch date (UTC)
2023-12-10 (3 years ago)
Launch vehicle
CHANG ZHENG 2D
Launch site
Xichang Space Center, China (XSC)
Object type
Payload
Rocket body
Debris
Shape & HBR
Box + 2 Pan, 2.5 m
Radar Cross Section
11.063 m², Large (>1 m²)

Expand to show TLE details & history
Last TLE update: 1 day ago

TLE from 1 day ago
0 YAOGAN-39 05C
1 58559U 23194C   26172.12890353  .00005180  00000-0  25252-3 0  9993
2 58559  34.9927  56.6344 0011510  73.0305 287.1669 15.17657658140726
Epoch: 2026-06-21T03:05Z
TLE epoch observation values (Epoch: 2026-06-21T03:05:37.264Z)
Latitude
-0.00002°
Longitude
100.8955°
Altitude
509.499 km
Speed
7.613 km/s
True Right ascension
03h 46m 32s
True Declination
0° 00' 00"
Sunlit
Object was in daylight at epoch
Visualization orbit readout
Latitude
Unknown
Longitude
Unknown
Altitude
Unknown
Speed
Unknown
Apparent Right ascension
Unknown
Apparent Declination
Unknown
Sunlit
N/A
Visualization observer readout
Local Sidereal Time
00:38:49
Azimuth
Unknown
Elevation
Unknown
Doppler factor
Unknown
Orbital elements
Apogee altitude
524.101 km
Perigee altitude
508.23 km
Semi-major axis
6,894.303 km
Eccentricity
0.00115
Inclination
34.9927°
RAAN
56.6344°
Arg. of periapsis
73.0305°
True anomaly
287.04083°
Mean anomaly
287.1669°
Eccentric anomaly
287.10387°
Mean motion
3.79147 °/min
Orbital period
94.95 mins
BSTAR
0.00025252
Loading maneuver chart data...
Computing Atmospheric mass density...
Loading historical data...
Loading historical data...
Loading historical data...
Loading historical data...
Loading historical data...
Loading historical data...
Loading historical data...
Other satellites on launch #194 in the year 2023 (2023-12-10 UTC)

Documentation

Showing up to 5 results
|